Salem, OR

7:51 PM PST on February 24, 2017 (GMT -0800)
McNary

Weather History for KSLE - August, 2013

Change the Weather History Date:

Tuesday, August 27, 2013

  Actual Average Record
Temperature  
Mean Temperature 73 °F 66 °F  
Max Temperature 85 °F 81 °F 101 °F (1935)
Min Temperature 60 °F 52 °F 39 °F (1962)
Degree Days  
Heating Degree Days 0 1  
Month to date heating degree days 3 24  
Since 1 June heating degree days 84 184  
Since 1 July heating degree days 5 54  
Cooling Degree Days 8 3  
Month to date cooling degree days 158 96  
Year to date cooling degree days 397 242  
Since 1 June cooling degree days 387 233  
Growing Degree Days 22 (Base 50)    
Moisture  
Dew Point 57 °F    
Average Humidity 65    
Maximum Humidity 90    
Minimum Humidity 40    
Precipitation  
Precipitation 0.00 in 0.02 in 0.52 in (1941)
Month to date precipitation 0.14 0.35  
Year to date precipitation 11.75 21.90  
Snow  
Snow 0.00 in - - ()
Month to date snowfall 0.0  
Since 1 June snowfall 0.0  
Snow Depth 0.00 in    
Sea Level Pressure  
Sea Level Pressure 29.86 in    
Wind  
Wind Speed 3 mph (WSW)    
Max Wind Speed 18 mph    
Max Gust Speed 23 mph    
Visibility 10 miles    
Events      
T = Trace of Precipitation, MM = Missing Value Source: NWS Daily Summary

Daily Weather History Graph

Daily Weather History Graph

Search for Another Location

Airport or City:

Trip Planner

Search our weather history database for the weather conditions in past years. The results will help you decide how hot, cold, wet, or windy it might be!

Date:

Astronomy

Aug. 27, 2013 Rise Set
Actual Time 6:28 AM PDT 7:57 PM PDT
Civil Twilight 5:57 AM PDT 8:27 PM PDT
Nautical Twilight 5:20 AM PDT 9:04 PM PDT
Astronomical Twilight 4:41 AM PDT 9:44 PM PDT
Moon 11:34 PM PDT (8/27) 1:51 PM PDT (8/27)
Length of Visible Light 14h 29m
Length of Day
13h 28m
Waning Gibbous, 56% of the Moon is Illuminated
Aug 27
Waning Gibbous
Aug 28
Last Quarter
Sep 5
New
Sep 12
First Quarter
Sep 19
Full

Hourly Weather History & Observations

Time (PDT) Temp. Heat Index Dew Point Humidity Pressure Visibility Wind Dir Wind Speed Gust Speed Precip Events Conditions
12:56 AM 62.1 °F - 59.0 °F 90% 29.95 in 10.0 mi Calm Calm - N/A   Mostly Cloudy
1:56 AM 62.1 °F - 59.0 °F 90% 29.95 in 10.0 mi Calm Calm - N/A   Overcast
2:56 AM 62.1 °F - 59.0 °F 90% 29.94 in 10.0 mi Calm Calm - N/A   Overcast
3:56 AM 61.0 °F - 57.0 °F 87% 29.93 in 10.0 mi SE 5.8 mph - N/A   Overcast
4:56 AM 62.1 °F - 55.9 °F 80% 29.92 in 10.0 mi South 4.6 mph - N/A   Overcast
5:56 AM 62.1 °F - 55.9 °F 80% 29.92 in 10.0 mi Calm Calm - N/A   Overcast
6:56 AM 61.0 °F - 55.9 °F 83% 29.93 in 10.0 mi SE 3.5 mph - N/A   Mostly Cloudy
7:56 AM 63.0 °F - 55.9 °F 78% 29.92 in 10.0 mi SSE 3.5 mph - N/A   Scattered Clouds
8:56 AM 64.9 °F - 55.9 °F 73% 29.92 in 10.0 mi Calm Calm - N/A   Mostly Cloudy
9:56 AM 69.1 °F - 57.0 °F 65% 29.89 in 10.0 mi Calm Calm - N/A   Clear
10:56 AM 72.0 °F - 57.0 °F 59% 29.88 in 10.0 mi NNW 5.8 mph - N/A   Scattered Clouds
11:56 AM 75.0 °F - 57.9 °F 55% 29.86 in 10.0 mi Variable 3.5 mph - N/A   Clear
12:56 PM 75.9 °F - 57.9 °F 54% 29.84 in 10.0 mi Calm Calm - N/A   Partly Cloudy
1:56 PM 80.1 °F 80.4 °F 57.0 °F 45% 29.82 in 10.0 mi North 5.8 mph - N/A   Partly Cloudy
2:56 PM 82.0 °F 81.7 °F 57.0 °F 42% 29.80 in 10.0 mi Variable 4.6 mph - N/A   Clear
3:56 PM 82.0 °F 81.6 °F 55.9 °F 41% 29.79 in 10.0 mi Variable 4.6 mph - N/A   Partly Cloudy
4:56 PM 81.0 °F 80.7 °F 55.0 °F 41% 29.78 in 10.0 mi Variable 5.8 mph - N/A   Clear
5:56 PM 78.1 °F - 61.0 °F 56% 29.79 in 10.0 mi WNW 12.7 mph 23.0 mph N/A   Clear
6:56 PM 73.9 °F - 59.0 °F 59% 29.80 in 10.0 mi West 9.2 mph - N/A   Clear
7:56 PM 70.0 °F - 57.9 °F 65% 29.81 in 10.0 mi West 5.8 mph - N/A   Partly Cloudy
8:56 PM 69.1 °F - 57.0 °F 65% 29.83 in 10.0 mi WSW 3.5 mph - N/A   Mostly Cloudy
9:56 PM 68.0 °F - 57.9 °F 70% 29.84 in 10.0 mi WSW 4.6 mph - N/A   Overcast
10:56 PM 68.0 °F - 57.9 °F 70% 29.84 in 10.0 mi Calm Calm - N/A   Overcast
11:56 PM 68.0 °F - 57.9 °F 70% 29.85 in 10.0 mi SW 4.6 mph - N/A   Overcast